FENGYUN 1C DEB, 29779

Orbit data source: Space-Track

FENGYUN 1C DEB, 29779 is space debris in SSO originally from a launch on Mon, 10 May 1999 UTC launched from the Taiyaun Space Center, China (TSC). Fengyun 1C debris stems from the Chinese weather satellite Fengyun-1C, which was intentionally destroyed by a Chinese anti-satellite missile in 2007. This event dramatically increased the amount of space debris, with thousands of trackable fragments posing hazards to satellites and human spaceflight. The Fengyun 1C debris cloud has become a focal point in discussions about space sustainability and the need for international regulations to prevent the creation of new debris.

Loading next visibility...
Identifier
29779, 1999-025BV
Orbit
SSO
Country
Flag of CNCN / PRC
Related business
Manufacturer
Unknown
Mission
Spacecraft
Bus & Motor
Unknown
Mass
Unknown
Launch date (UTC)
1999-05-10 (27 years ago)
Launch vehicle
Unknown
Launch site
Taiyaun Space Center, China (TSC)
Object type
Payload
Rocket body
Debris
Shape & HBR
Unknown shape, 0.1 m
Radar Cross Section
Medium (>0.1 m² and <1 m²)

Expand to show TLE details & history
Last TLE update: 1 day ago

TLE from 1 day ago
0 FENGYUN 1C DEB
1 29779U 99025BV  26256.94180304  .00000239  00000-0  14581-3 0  9995
2 29779  98.6735 264.9473 0064251  99.5247 261.3195 14.13670102 13010
Epoch: 2026-09-13T22:36Z
TLE epoch observation values (Epoch: 2026-09-13T22:36:11.782Z)
Latitude
-0.00001°
Longitude
-67.03101°
Altitude
857.046 km
Speed
7.42 km/s
True Right ascension
17h 39m 47s
True Declination
0° 00' 00"
Sunlit
Object was in daylight at epoch
Visualization orbit readout
Latitude
Unknown
Longitude
Unknown
Altitude
Unknown
Speed
Unknown
Apparent Right ascension
Unknown
Apparent Declination
Unknown
Sunlit
N/A
Visualization observer readout
Local Sidereal Time
02:13:39
Azimuth
Unknown
Elevation
Unknown
Doppler factor
Unknown
Orbital elements
Apogee altitude
890.408 km
Perigee altitude
797.602 km
Semi-major axis
7,222.142 km
Eccentricity
0.00643
Inclination
98.6735°
RAAN
264.9473°
Arg. of periapsis
99.5247°
True anomaly
260.59257°
Mean anomaly
261.3195°
Eccentric anomaly
260.95595°
Mean motion
3.53626 °/min
Orbital period
101.8 mins
BSTAR
0.00014581
Loading maneuver chart data...
Computing Atmospheric mass density...
Loading historical data...
Loading historical data...
Loading historical data...
Loading historical data...
Loading historical data...
Loading historical data...
Loading historical data...

Documentation

Showing up to 5 results
|